Regional Weather Roundup
Issued by NWS

Home | Current Version | Previous Version | Graphics & Text | Print | Product List | Glossary On
Versions: 1 2 3 4 5 6 7 8 9 10 11 12 13 14 15 16 17 18 19 20 21 22 23 24 25 26 27 28 29 30 31 32 33 34 35 36 37 38 39 40 41 42 43 44 45 46 47 48 49 50
000
ASUS45 KCYS 102310
RWRWY

WYOMING REGIONAL WEATHER ROUNDUP
NATIONAL WEATHER SERVICE CHEYENNE WY
400 PM MST WED FEB 10 2016

NOTE:  "FAIR" INDICATES FEW OR NO CLOUDS BELOW 12,000 FEET
WITH NO SIGNIFICANT WEATHER AND/OR OBSTRUCTIONS TO VISIBILITY.

WYZ001-110000-
YELLOWSTONE NATIONAL PARK

CITY           SKY/WX    TMP DP  RH WIND       PRES   REMARKS
LK YELLOWSTONE   N/A     38  22  52 MISG      30.33R
W YELLOWSTONE  NOT AVBL

$$
WYZ002>013-054>058-071-098>099-110000-
NORTHERN WYOMING

CITY           SKY/WX    TMP DP  RH WIND       PRES   REMARKS
JACKSON        SUNNY     21  19  93 CALM      30.36R
CODY           FAIR      57  18  21 SW13G21   30.13R
GREYBULL       FAIR      50  26  39 CALM      30.12R
WORLAND        FAIR      47  28  47 CALM      30.12S
SHERIDAN       MOSUNNY   59  21  23 NW15      30.02S
BUFFALO        FAIR      53  24  32 N14G23    30.09R
GILLETTE       FAIR      54  24  31 NW16      30.06R
HULETT         FAIR      54  27  35 NW8       30.05R
NEWCASTLE      FAIR      54  21  28 NW16G28   30.03R

$$
WYZ014>020-022>026-101>103-110000-
CENTRAL WYOMING

CITY           SKY/WX    TMP DP  RH WIND       PRES   REMARKS
BIG PINEY      FAIR      41  22  46 VRB3      30.31S
PINEDALE       FAIR      41  25  52 NW8       30.30S
DUBOIS         FAIR      46  12  25 NW18G28   30.24S
LANDER         FAIR      44  23  43 CALM      30.14S
RIVERTON       FAIR      37  22  54 CALM      30.16R
CASPER         FAIR      41  24  51 SW7       30.15R
DOUGLAS        FAIR      47  26  44 NW12        N/A

$$
WYZ021-027>030-104>119-110000-
SOUTHERN WYOMING

CITY           SKY/WX    TMP DP  RH WIND       PRES   REMARKS
EVANSTON       FAIR      39  21  48 SW12      30.37S WCI  32
KEMMERER       FAIR      37  21  52 CALM      30.36S
FORT BRIDGER   CLEAR     43  23  45 W15       30.38S
ROCK SPRINGS   FAIR      40  19  43 W23       30.28F WCI  30
DIXON          FAIR      32  21  64 N5        30.36R WCI  27
RAWLINS        FAIR      36  19  50 W15       30.25R WCI  27
SARATOGA       FAIR      39  19  45 W21       30.26R WCI  29
LARAMIE        FAIR      41  20  43 W13       30.18R
CHEYENNE       FAIR      51  18  27 NW20G31   30.12R
TORRINGTON     FAIR      57  18  21 NW15G24   30.05R
PINE BLUFFS    FAIR      52  21  30 NW25G33   30.10R

$$



USA.gov is the U.S. government's official web portal to all federal, state and local government web resources and services.